Terminal Aerodrome Forecast
Issued by NWS Spokane, WA

Home | Current Version | Previous Version | Text Only | Print | Product List | Glossary On
Versions: 1 2 3 4 5 6 7 8 9 10 11 12 13 14 15 16 17 18 19 20 21 22 23 24 25 26 27 28 29 30 31 32
000
FTUS46 KOTX 012320
TAFGEG
TAF
KGEG 012320Z 0200/0224 15006KT P6SM FEW080 SCT120 BKN200
     FM020200 18008KT P6SM -SHRA VCTS BKN050CB BKN100 OVC150
     FM020700 19012KT P6SM SCT070 BKN120 OVC150
     FM021200 20015G20KT P6SM BKN050 BKN100
     FM021900 20015G22KT P6SM VCSH SCT050 BKN080=

USA.gov is the U.S. government's official web portal to all federal, state and local government web resources and services.